Regional Weather Roundup
Issued by NWS

Home | Current Version | Previous Version | Text Only | Print | Product List | Glossary On
Versions: 1 2 3 4 5 6 7 8 9 10 11 12 13 14 15 16 17 18 19 20 21 22 23 24 25 26 27 28 29 30 31 32 33 34 35 36 37 38 39 40 41 42 43 44 45 46 47 48 49 50
000
ASUS43 KOAX 221810
RWRNE

WEATHER ROUNDUP FOR NEBRASKA
NATIONAL WEATHER SERVICE OMAHA NE
100 PM CDT TUE JUL 22 2014

NOTES: SATELLITE DATA IS BEING USED TO AUGMENT CLOUD COVER ABOVE
       12000 FEET.
       "FAIR" INDICATES FEW OR NO CLOUDS BELOW 12,000 FEET WITH NO
       SIGNIFICANT WEATHER AND/OR OBSTRUCTIONS TO VISIBILITY.

  * THESE STATIONS DO NOT REPORT WEATHER SUCH AS RAIN...SNOW OR FOG.

NEZ001>004-019>022-054>056-221900-
NEBRASKA PANHANDLE

CITY           SKY/WX    TMP DP  RH WIND       PRES   REMARKS
SCOTTSBLUFF    SUNNY     87  58  37 E14       30.26S
6HR MIN TEMP:  67; 6HR MAX TEMP:  87;

ALLIANCE       SUNNY     90  50  25 SE8G22    30.26S
6HR MIN TEMP:  63; 6HR MAX TEMP:  90;

CHADRON        SUNNY     85  58  39 E8        30.23S
6HR MIN TEMP:  63; 6HR MAX TEMP:  85;

KIMBALL        SUNNY     85  52  32 SE7       30.30S
SIDNEY         SUNNY     90  51  26 SE12G17   30.28S
6HR MIN TEMP:  62; 6HR MAX TEMP:  90;

$$

NEZ057>060-069>072-079>082-221900-
SOUTHWEST NEBRASKA

CITY           SKY/WX    TMP DP  RH WIND       PRES   REMARKS
NORTH PLATTE   SUNNY     88  59  37 SE10      30.17S
6HR MIN TEMP:  73; 6HR MAX TEMP:  88;

IMPERIAL       SUNNY     88  59  37 VRB6      30.19F
6HR MIN TEMP:  69; 6HR MAX TEMP:  89;

LEXINGTON      SUNNY     89  60  37 E10       30.15S
MCCOOK         SUNNY     90  63  40 NE14      30.15S HX  91
6HR MIN TEMP:  67; 6HR MAX TEMP:  90;

OGALLALA       SUNNY     85  57  38 E13       30.21S
$$

NEZ005>010-023>029-035>040-094-221900-
NORTH CENTRAL NEBRASKA

CITY           SKY/WX    TMP DP  RH WIND       PRES   REMARKS
VALENTINE      MOSUNNY   79  64  60 E6        30.22R
6HR MIN TEMP:  68; 6HR MAX TEMP:  80;

AINSWORTH      MOSUNNY   80  61  52 CALM      30.22R
BROKEN BOW     SUNNY     86  64  47 E10       30.17S
6HR MIN TEMP:  70; 6HR MAX TEMP:  87;

O`NEILL        SUNNY     79  61  53 N9        30.17S
THEDFORD       SUNNY     89  58  34 NE8       30.21R
$$

NEZ041-046>049-061>064-073>077-083>087-221900-
SOUTH CENTRAL NEBRASKA

CITY           SKY/WX    TMP DP  RH WIND       PRES   REMARKS
GRAND ISLAND   SUNNY     87  66  49 N9G18     30.12R
6HR MIN TEMP:  76; 6HR MAX TEMP:  87;

AURORA         MOSUNNY   86  68  54 N9G18     30.10S
HASTINGS       MOSUNNY   87  65  47 E9        30.10S
6HR MIN TEMP:  73; 6HR MAX TEMP:  87;

HEBRON         PTSUNNY   92  68  46 NW6       30.05R HX  96
HOLDREGE       SUNNY     87  63  44 NE10      30.13S
KEARNEY *      SUNNY     90  63  40 NE16      30.13S HX  90
YORK           PTSUNNY   88  72  58 N14G20    30.09R HX  94
$$

NEZ011>018-030>034-042>045-221900-
NORTHEAST NEBRASKA

CITY           SKY/WX    TMP DP  RH WIND       PRES   REMARKS
NORFOLK        MOSUNNY   85  64  49 N13       30.09F
6HR MIN TEMP:  73; 6HR MAX TEMP:  85;

ALBION         SUNNY     83  62  48 NE8       30.11S
BLAIR          PTSUNNY   86  66  49 N16G23    30.06R
COLUMBUS *     MOSUNNY   86  66  51 NE13      30.09S
FREMONT        MOSUNNY   87  66  48 N12G17    30.07R
TEKAMAH        MOSUNNY   88  69  53 N16       30.05S HX  92
6HR MIN TEMP:  81; 6HR MAX TEMP:  89;

WAYNE          PTSUNNY   81  69  67 N7        30.09S
$$

NEZ050>053-065>068-078-088>093-221900-
SOUTHEAST NEBRASKA

CITY           SKY/WX    TMP DP  RH WIND       PRES   REMARKS
LINCOLN        PTSUNNY   94  74  52 N8G17     30.05R HX 104
6HR MIN TEMP:  76; 6HR MAX TEMP:  95;

OMAHA EPPLEY   PTSUNNY   92  72  51 N16       30.03R HX  99
6HR MIN TEMP:  81; 6HR MAX TEMP:  92;

BEATRICE       PTSUNNY   88  71  57 W7        30.03R HX  93
FALLS CITY     MOSUNNY   94  74  52 SW8       30.00S HAZE    HX 104
6HR MIN TEMP:  76; 6HR MAX TEMP:  95;

NEBRASKA CITY  MOSUNNY   89  73  59 CALM      30.01S HX  96
PLATTSMOUTH    PTSUNNY   92  74  56 N5        30.02R HX 101
$$

NEZ044-045-051>053-067-221900-
OMAHA AREA

CITY           SKY/WX    TMP DP  RH WIND       PRES   REMARKS
OMAHA EPPLEY   PTSUNNY   92  72  51 N16       30.03R HX  99
6HR MIN TEMP:  81; 6HR MAX TEMP:  92;

BLAIR          PTSUNNY   86  66  49 N16G23    30.06R
FREMONT        MOSUNNY   87  66  48 N12G17    30.07R
MILLARD        PTSUNNY   91  74  57 N13G20    30.03R HX 101
OFFUTT AFB     PTSUNNY   93  78  62 VRB6      30.02R HX 108
PLATTSMOUTH    PTSUNNY   92  74  56 N5        30.02R HX 101
WAHOO          FAIR      89  71  54 N13       30.05S HX  94
$$


USA.gov is the U.S. government's official web portal to all federal, state and local government web resources and services.